Torna al catalogo

STARLINK-37724

AttivoComunicazioniSSO
NORAD 69218·PAYLOAD·🇺🇸 United States

Lanciato May 26, 2026 da Vandenberg Space Force Base

Loading…

Prossimi Passaggi (prossime 24 ore)

TLE

AggiornatoSource: CelesTrak SupGP

Epoca: Sep 14, 2026, 22:43 UTC

1 69218C 26115H   26257.94701389  .00042948  00000+0  13332-2 0  2571
2 69218  97.2833 274.0976 0001311  87.7633  58.9517 15.33416506    15

Traccia STARLINK-37724 in tempo reale con AllMySat

Download on the App Store